Weather History for KFAR - July, 2013

Change the Weather History Date:

Monday, July 1, 2013

  Actual Average Record
Temperature  
Mean Temperature 73 °F 70 °F  
Max Temperature 87 °F 81 °F 99 °F (1911)
Min Temperature 59 °F 59 °F 39 °F (2001)
Degree Days  
Heating Degree Days 0 1  
Month to date heating degree days 0 1  
Since 1 June heating degree days 62 74  
Since 1 July heating degree days 0 1  
Cooling Degree Days 8 6  
Month to date cooling degree days 8 6  
Year to date cooling degree days 183 144  
Since 1 June cooling degree days 154 113  
Growing Degree Days 23 (Base 50)    
Moisture  
Dew Point 54 °F    
Average Humidity 57    
Maximum Humidity 87    
Minimum Humidity 27    
Precipitation  
Precipitation 0.00 in 0.12 in 3.93 in (1952)
Month to date precipitation 0.00 0.12  
Year to date precipitation 20.63 10.83  
Snow  
Snow 0.00 in 0.00 in 0.00 in ()
Month to date snowfall 0.0 0.0  
Since 1 June snowfall 0.0 0.0  
Since 1 July snowfall 0.0 0.0  
Snow Depth 0.00 in    
Sea Level Pressure  
Sea Level Pressure 30.18 in    
Wind  
Wind Speed 2 mph (NNE)    
Max Wind Speed 9 mph    
Max Gust Speed 17 mph    
Visibility 10 miles    
Events      
T = Trace of Precipitation, MM = Missing Value Source: NWS Daily Summary

Daily Weather History Graph

Daily Weather History Graph

Search for Another Location

Airport or City:

Trip Planner

Search our weather history database for the weather conditions in past years. The results will help you decide how hot, cold, wet, or windy it might be!

Date:

Astronomy

Jul. 01, 2013 Rise Set
Actual Time 5:36 AM CDT 9:25 PM CDT
Civil Twilight 4:57 AM CDT 10:04 PM CDT
Nautical Twilight 4:03 AM CDT 10:58 PM CDT
Astronomical Twilight 2:45 AM CDT 12:15 AM CDT
Moon 1:22 AM CDT (7/1) 3:29 PM CDT (7/1)
Length of Visible Light 17h 07m
Length of Day
15h 48m
Waning Crescent, 35% of the Moon is Illuminated
Jul 1
Waning Crescent
Jul 8
New
Jul 15
First Quarter
Jul 22
Full
Jul 29
Last Quarter

Hourly Weather History & Observations

Time (CDT) Temp. Heat Index Dew Point Humidity Pressure Visibility Wind Dir Wind Speed Gust Speed Precip Events Conditions
12:53 AM 66.9 °F - 57.9 °F 73% 30.17 in 10.0 mi Calm Calm - N/A   Clear
1:53 AM 64.9 °F - 55.9 °F 73% 30.17 in 10.0 mi Calm Calm - N/A   Clear
2:53 AM 63.0 °F - 55.9 °F 78% 30.18 in 10.0 mi NNE 4.6 mph - N/A   Clear
3:53 AM 64.0 °F - 55.0 °F 73% 30.18 in 10.0 mi Calm Calm - N/A   Clear
4:53 AM 61.0 °F - 54.0 °F 78% 30.19 in 10.0 mi NNW 3.5 mph - N/A   Clear
5:53 AM 59.0 °F - 55.0 °F 87% 30.20 in 10.0 mi North 3.5 mph - N/A   Clear
6:53 AM 63.0 °F - 57.0 °F 81% 30.22 in 10.0 mi Calm Calm - N/A   Clear
7:53 AM 66.9 °F - 59.0 °F 76% 30.22 in 10.0 mi NNW 4.6 mph - N/A   Clear
8:53 AM 72.0 °F - 60.1 °F 66% 30.23 in 10.0 mi Calm Calm - N/A   Clear
9:53 AM 75.9 °F - 57.9 °F 54% 30.22 in 10.0 mi Calm Calm - N/A   Clear
10:53 AM 80.1 °F 80.2 °F 55.9 °F 43% 30.22 in 10.0 mi North 3.5 mph - N/A   Clear
11:53 AM 82.9 °F 81.9 °F 54.0 °F 37% 30.22 in 10.0 mi NE 3.5 mph - N/A   Clear
12:53 PM 82.9 °F - 51.1 °F 33% 30.21 in 10.0 mi NNW 4.6 mph - N/A   Clear
1:53 PM 86.0 °F - 51.1 °F 30% 30.20 in 10.0 mi North 4.6 mph - N/A   Clear
2:53 PM 86.0 °F - 48.9 °F 28% 30.19 in 10.0 mi Calm Calm - N/A   Partly Cloudy
3:53 PM 84.9 °F - 48.9 °F 29% 30.18 in 10.0 mi ESE 3.5 mph - N/A   Clear
4:53 PM 84.0 °F - 48.0 °F 28% 30.17 in 10.0 mi East 3.5 mph - N/A   Clear
5:53 PM 86.0 °F - 50.0 °F 29% 30.17 in 10.0 mi Variable 5.8 mph - N/A   Clear
6:53 PM 84.9 °F - 50.0 °F 30% 30.16 in 10.0 mi NE 4.6 mph - N/A   Partly Cloudy
7:53 PM 82.9 °F - 51.1 °F 33% 30.15 in 10.0 mi Calm Calm - N/A   Scattered Clouds
8:53 PM 80.1 °F 80.0 °F 54.0 °F 40% 30.14 in 8.0 mi Calm Calm - N/A   Partly Cloudy
9:53 PM 73.9 °F - 55.9 °F 53% 30.14 in 9.0 mi Calm Calm - N/A   Clear
10:53 PM 70.0 °F - 60.1 °F 71% 30.15 in 8.0 mi Calm Calm - N/A   Clear
11:53 PM 66.9 °F - 55.9 °F 68% 30.14 in 8.0 mi Calm Calm - N/A   Clear